Home   Weather   York   Past weeks

Flag for United Kingdom Past Weather in York, England, United Kingdom — Yesterday and Last 2 Weeks

Now
55 °F

Drizzle. Mostly cloudy.


Feels Like: 54 °F
Forecast: N/A
Wind: 6 mph from Southwest

Location: Linton-On-Ouse

Current Time: Dec 9, 2016 at 5:34:59 pm

Latest Report: Dec 9, 2016 at 4:50 pm


Visibility: 3 mi

Pressure: 30.07 "Hg

Humidity: 88%

Dew Point: 52 °F

Location of YorkLocation

Past Weather in York — Graph

°F

York Temperature Yesterday

Maximum temperature yesterday: 57 °F (at 12:50 am)
Minimum temperature yesterday: 45 °F (at 11:50 pm)
Average temperature yesterday: 53 °F

High & Low Weather Summary for the Past Weeks

 TemperatureHumidityPressure
High57 °F (Dec 7, 8:50 pm)100% (Nov 25, 7:50 pm)30.57 "Hg (Nov 25, 7:50 pm)
Low25 °F (Nov 29, 5:50 am)57% (Nov 27, 9:50 pm)30.04 "Hg (Dec 8, 11:50 am)
Average41 °F87%30.31 "Hg
* Reported Nov 24 3:50 pm — Dec 9 3:50 pm, York, Weather by CustomWeather, © 2016

Note: Actual official high and low records may vary slightly from our data, if they occured in-between our weather recording intervals... More about our weather records

Advertising

York Weather History for the Previous 24 Hours

Scroll right to see more
 ConditionsComfort  
Time TempWeatherWind HumidityBarometerVisibility
3:50 pm
Fri, Dec 9
55 °FDrizzle. Overcast.8 mph88%30.07 "Hg3 mi
2:50 pm57 °FLight rain. Mostly cloudy.10 mph82%30.07 "HgN/A
1:50 pm57 °FLight rain. Overcast.14 mph82%30.07 "HgN/A
12:50 pm57 °FLight rain. Mostly cloudy.14 mph82%30.07 "HgN/A
11:50 am57 °FPartly sunny.14 mph77%30.07 "HgN/A
10:50 am57 °FMostly cloudy.10 mph77%30.09 "HgN/A
9:50 am55 °FMostly cloudy.13 mph82%30.09 "HgN/A
8:50 am52 °FFog.12 mph94%30.09 "Hg3 mi
7:50 am50 °FFog.5 mph94%30.09 "Hg2 mi
6:50 am50 °FFog.8 mph94%30.09 "Hg2 mi
5:50 am48 °FPassing clouds.12 mph94%30.12 "Hg2 mi
4:50 am46 °FPassing clouds.9 mph93%30.15 "Hg2 mi
3:50 am46 °FPartly cloudy.5 mph93%30.15 "Hg4 mi
2:50 am43 °FPartly cloudy.3 mph100%30.18 "Hg2 mi
1:50 am45 °FPassing clouds.6 mph93%30.18 "Hg2 mi
12:50 am43 °FPassing clouds.5 mph100%30.18 "Hg2 mi
11:50 pm
Thu, Dec 8
45 °FClear.5 mph93%30.21 "Hg4 mi
10:50 pm50 °FPassing clouds.8 mph88%30.21 "HgN/A
9:50 pm50 °FPassing clouds.12 mph88%30.21 "HgN/A
8:50 pm50 °FPassing clouds.8 mph88%30.21 "HgN/A
7:50 pm50 °FPassing clouds.7 mph88%30.21 "HgN/A
6:50 pm50 °FPassing clouds.5 mph88%30.18 "HgN/A
5:50 pm50 °FClear.8 mph88%30.18 "HgN/A
Weather by CustomWeather, © 2016

See weather overviewHow to use our weather pages